Regional Weather Roundup
Issued by NWS

Home | Current Version | Previous Version | Graphics & Text | Print | Product List | Glossary On
Versions: 1 2 3 4 5 6 7 8 9 10 11 12 13 14 15 16 17 18 19 20 21 22 23 24 25 26 27 28 29 30 31 32 33 34 35 36 37 38 39 40 41 42 43 44 45 46 47 48 49 50
000
ASUS43 KMKX 290111
RWRWI

WISCONSIN REGIONAL WEATHER ROUNDUP
NATIONAL WEATHER SERVICE MILWAUKEE/SULLIVAN WI
800 PM CDT TUE JUL 28 2015

NOTE: "FAIR" INDICATES FEW OR NO CLOUDS BELOW 12,000 FEET WITH NO
SIGNIFICANT WEATHER AND/OR OBSTRUCTIONS TO VISIBILITY.

WIZ001-002-006>008-014>016-023>028-290200-
NORTHWEST WISCONSIN

CITY           SKY/WX    TMP DP  RH WIND       PRES   REMARKS
SUPERIOR ARPT  CLOUDY    80  70  72 SW8       29.75S HX  83
ASHLAND        CLOUDY    80  70  71 S8        29.79S HX  83
HAYWARD        CLOUDY    79  70  74 S6        29.83S HX  82
SIREN          CLOUDY    79  69  72 S8        29.81S HX  82
CUMBERLAND     CLOUDY    75  72  88 S5        29.84S
RICE LAKE      CLOUDY    78  72  81 S3        29.86R HX  80
CHETEK         LGT RAIN  77  75  94 CALM      29.85R
LADYSMITH      MOCLDY    80  71  75 S7        29.88R HX  83
EAU CLAIRE     CLOUDY    82  73  74 S8        29.84R HX  87
MENOMONIE      CLOUDY    81  72  74 SW8       29.85R HX  84
NEW RICHMOND   CLOUDY    79  71  74 SW8       29.84R HX  82
OSCEOLA        CLOUDY    80  72  76 S9        29.84R HX  84
$$

WIZ003>005-009-010-017-018-290200-
NORTH CENTRAL WISCONSIN

CITY           SKY/WX    TMP DP  RH WIND       PRES   REMARKS
MANITOWISH WTR CLOUDY    76  69  78 S7        29.88R
ARBOR VITAE    MOCLDY    77  68  73 SW8       29.89R
WOODRUFF       MOCLDY    77  68  73 SW8       29.89R
RHINELANDER    MOCLDY    78  67  68 S8        29.91R HX  80
EAGLE RIVER    CLEAR     76  64  65 S5        29.89R
LAND O LAKES   CLEAR     78  65  66 S5        29.90R
PHILLIPS       CLOUDY    77  70  77 S9        29.87S
TOMAHAWK       MOCLDY    77  68  75 CALM      29.91R
MEDFORD        PTCLDY    75  70  84 S8        29.90S
MERRILL        NOT AVBL
$$

WIZ029-030-035-036-043>047-290200-
CENTRAL WISCONSIN

CITY           SKY/WX    TMP DP  RH WIND       PRES   REMARKS
WAUSAU         PTCLDY    80  69  69 S9        29.88R HX  83
MOSINEE        NOT AVBL
MARSHFIELD     MOCLDY    79  70  74 S7        29.90R HX  82
STEVENS POINT  CLOUDY    80  70  71 S8        29.90R HX  83
WAUPACA        PTCLDY    82  71  71 SE5       29.90R HX  86
WAUTOMA        PTCLDY    82  73  74 S7        29.91R HX  87
WISC RAPIDS    PTCLDY    80  68  66 SW12      29.91R HX  83
CAMP DOUGLAS   MOCLDY    79  77  94 S6        29.90R HX  83
$$

WIZ011>013-019>022-031-037>040-048>050-290200-
NORTHEAST WISCONSIN

CITY           SKY/WX    TMP DP  RH WIND       PRES   REMARKS
ANTIGO         PTCLDY    75  69  81 S6        29.93R
SHAWANO        CLOUDY    81  68  63 S5        29.90R HX  84
OCONTO         PTCLDY    78  67  69 S6        29.89S HX  80
STURGEON BAY   PTCLDY    75  63  64 S10       29.93F
GREEN BAY      PTCLDY    79  66  64 S8        29.90S HX  81
MANITOWOC      PTCLDY    73  66  78 MISG      29.92F
APPLETON       MOCLDY    79  64  61 SE9       29.91S HX  81
CLINTONVILLE   CLOUDY    81  66  61 S7        29.89R HX  83
OSHKOSH        PTCLDY    77  68  73 S6        29.90R
$$

WIZ032>034-041-042-053>061-290200-
SOUTHWEST WISCONSIN

CITY           SKY/WX    TMP DP  RH WIND       PRES   REMARKS
LA CROSSE      CLOUDY    82  72  71 S10       29.87R HX  87
SPARTA         MOCLDY    79  70  74 S6        29.90R HX  81
VIROQUA        MOCLDY    76  73  89 S7        29.93R
BOSCOBEL       CLOUDY    79  71  76 S3        29.90R HX  82
PRAIRIE DU CHI CLOUDY    76  69  79 E3        29.90S
PLATTEVILLE    CLOUDY    77  74  91 S3        29.93S
$$

WIZ056-057-062-063-064-067-068-290200-
SOUTH CENTRAL WISCONSIN

CITY           SKY/WX    TMP DP  RH WIND       PRES   REMARKS
REEDSBURG      MOCLDY    77  72  82 CALM      29.91R
BARABOO/DELLS  MOCLDY    78  69  74 SW3       29.92R HX  80
LONE ROCK      MOCLDY    79  73  82 CALM      29.92R HX  82
MINERAL POINT  CLOUDY    79  73  83 SW3       29.94R HX  82
MADISON        MOCLDY    82  71  69 SW5       29.91R HX  86
MIDDLETON      MOCLDY    81  71  71 SW3       29.93R HX  85
WATERTOWN      PTCLDY    80  78  93 SW5       29.92R HX  85
MONROE         MOCLDY    79  72  78 S5        29.94R HX  82
JANESVILLE     PTCLDY    81  73  78 SW5       29.92R HX  85
$$

WIZ051-052-058>065-066-070>072-290200-
SOUTHEAST WISCONSIN

CITY           SKY/WX    TMP DP  RH WIND       PRES   REMARKS
MILWAUKEE      MOCLDY    81  67  62 SE8       29.92S HX  83
WAUKESHA       NOT AVBL
MILWAUKEE/TIMM NOT AVBL
RACINE         PTCLDY    80  67  64 S7        29.94S HX  82
BURLINGTON     PTCLDY    76  69  79 CALM      29.93R
KENOSHA        PTCLDY    81  69  67 S3        29.93R HX  84
FOND DU LAC    MOCLDY    80  69  69 S7        29.91R HX  83
SHEBOYGAN      PTCLDY    76  66  71 S6        29.92F
WEST BEND      PTCLDY    77  66  69 CALM      29.93R
JUNEAU         PTCLDY    80  73  79 S6        29.93R HX  84
$$

LSZ147-162-290200-
LAKE SUPERIOR

STATION/POSITION TIME  TEMP    WIND        PRES    WAVE
                       AIR SEA DIR/SP/G            HT/PER
                 (UTC) (F)     (DEG/KT/KT) (MB)    (FT/S)
W MID LAKE BUOY  0050   68 62  150/  8/ 10 1007.5F   1/ 3
DEVILS ISLAND    0100   80     190/  6/  8 1007.5R
SAXON HARBOR     0000   85                 1008.1
$$

LMZ867-665-643>646-290200-
LAKE MICHIGAN

STATION/POSITION TIME  TEMP    WIND        PRES    WAVE
                       AIR SEA DIR/SP/G            HT/PER
                 (UTC) (F)     (DEG/KT/KT) (MB)    (FT/S)
CHAMBERS ISLAND  0000   79     150/  4/ 11 1012.2S
S GREEN BAY BUOY 0100   79 76  160/ 14/ 16 1013.5F
N MID LAKE BUOY  0050   74 71  170/ 10/ 12 1012.9R   0
NORTHPORT PIER   0000   76     160/  3/ 10 1012.9S
SISTER BAY       0014   80     170/ 11/ 13   N/A
ALGOMA LAKESHORE 0012          210/ 10/ 11   N/A
KEWAUNEE LAKESHO 0000   68     180/  7/  8 1013.1S
SHEBOYGAN LAKESH 0100   71     170/  6/  7 1013.1F
PORT WASHINGTON  0000   74     150/  2/  3 1013.9R
ATWATER BUOY     0100   72     120/  6/  8 1014.7R
MILWAUKEE LAKESH 0000   76     150/ 10/ 10   N/A
KENOSHA   LAKESH 0100   79     180/  6/  6 1012.9R
$$

TC  - TEMPERATURE IN CELSIUS
VSB - VISIBILITY IN STATUTE MILES
WCI - WIND CHILL INDEX
HX  - HEAT INDEX




USA.gov is the U.S. government's official web portal to all federal, state and local government web resources and services.